{"data":{"norad_id":68841,"epoch":"2026-09-19T23:24:39.049344Z","epoch_age_seconds":60717,"freshness":"FRESH","line1":"1 68841U 26094C   26262.97545196  .00015325  00000+0  47585-3 0  9999","line2":"2 68841  97.2844 276.0514 0002087  88.9955 271.1526 15.33458361 22578","mean_motion":15.33458361,"eccentricity":0.0002087,"inclination_deg":97.2844,"raan_deg":276.0514,"arg_perigee_deg":88.9955,"mean_anomaly_deg":271.1526,"bstar":0.00047585,"rev_number":2257,"period_min":93.905386453464,"perigee_km":464.075154075,"apogee_km":466.93168958707,"semimajor_km":6843.640421831,"source":"CELESTRAK","updated_at":"2026-09-20T09:00:44.013893Z"}}